Vertical_Velocity
-1 -0 -0 -1 -1 -1 -3 -2 -1 -1 0 -1 -1 -0 1 0 1 2 2 0 3 4
-1 -1 -2 -1 -2 -1 1 -1 -1 0 -3 -3 -2 -1 -0 -1 -3 -2 -1 1 2 1
-2 -1 -0 1 1 0 1 -0 -2 -3 -3 -3 -3 -3 -3 -5 -2 -0 1 -0 -1 2
0 -1 -0 0 1 0 -1 -2 -2 -1 -1 -1 -2 -1 -2 0 -1 -2 -4 -1 0 3
-0 2 0 -1 -1 -0 -2 -1 -2 -2 -2 -2 -2 -2 -3 -2 0 -1 -3 -3 -4 4
-0 -2 -3 -1 -2 -2 -3 -1 0 -0 -2 -3 -3 -3 0 2 1 1 -0 1 1 -1
-3 -3 -2 -3 -2 -1 -2 -3 -2 -0 -0 -1 -0 -1 -0 -1 -3 -0 1 2 1 -0
-1 -0 -1 -1 -2 -0 1 1 1 -3 0 -2 -3 -3 -3 1 2 1 -3 1 1 2
-1 -2 -2 -1 -1 -1 -2 -4 -5 -5 -5 -5 -4 -2 1 2 1 1 -3 -5 -4 -1
0 -1 -1 -2 -3 -4 -5 -4 -4 -4 -3 -4 -5 -1 1 2 1 -2 -3 -4 -7 -6
-3 -3 -2 -1 -2 -2 -3 -4 -5 -2 -2 -4 -3 -0 -2 -2 -2 -3 -2 -4 -4 -1
-2 -3 -3 -4 -4 -2 -6 -5 -4 -2 -6 -4 -5 1 -2 1 -1 -3 -4 -3 -1 4
-2 -2 -2 -3 -4 -4 1 -1 -4 -4 -1 1 -5 -1 -4 -1 -1 -3 -2 1 -2 -2
-1 -2 -1 -1 -2 -3 -1 -1 -2 1 3 -4 1 -8 -2 -2 4 5 4 3 -10 -6
Height
1473 1471 1469 1467 1464 1460 1457 1453 1449 1445 1441 1437 1432 1428 1423 1418 1414 1409 1405 1400 1397 1393
1473 1470 1468 1465 1462 1458 1454 1449 1445 1441 1436 1432 1427 1422 1417 1412 1408 1403 1398 1394 1389 1385
1471 1468 1465 1462 1458 1454 1449 1445 1440 1435 1431 1426 1421 1416 1412 1406 1402 1397 1392 1387 1382 1378
1469 1466 1463 1459 1454 1449 1445 1441 1436 1431 1426 1421 1416 1411 1406 1402 1396 1391 1386 1382 1378 1372
1466 1462 1459 1455 1451 1446 1442 1438 1433 1428 1422 1417 1411 1406 1401 1396 1391 1386 1380 1375 1371 1367
1462 1458 1454 1451 1447 1443 1438 1434 1429 1423 1418 1412 1407 1401 1396 1391 1384 1379 1374 1370 1366 1361
1458 1454 1451 1448 1444 1440 1435 1429 1424 1419 1413 1408 1401 1396 1390 1384 1378 1373 1369 1365 1359 1354
1455 1452 1448 1444 1440 1435 1430 1426 1420 1415 1410 1404 1398 1393 1386 1379 1373 1366 1360 1357 1351 1347
1452 1448 1444 1440 1435 1431 1426 1421 1416 1410 1404 1398 1393 1388 1382 1375 1368 1362 1356 1348 1342 1338
1449 1445 1441 1436 1432 1427 1421 1415 1410 1405 1399 1393 1388 1382 1376 1370 1364 1357 1351 1344 1338 1331
1446 1442 1437 1433 1428 1423 1417 1411 1405 1399 1394 1387 1382 1376 1369 1364 1357 1351 1345 1340 1334 1327
1442 1437 1433 1428 1424 1419 1412 1406 1400 1393 1388 1382 1375 1370 1364 1358 1351 1344 1339 1334 1328 1322
1439 1435 1430 1425 1419 1413 1408 1401 1394 1388 1382 1376 1369 1363 1359 1354 1347 1340 1333 1327 1320 1314
1436 1430 1425 1420 1415 1409 1402 1394 1388 1382 1375 1369 1365 1359 1354 1349 1343 1336 1328 1320 1313 1305